Regional Weather Roundup
Issued by NWS

Home | Current Version | Previous Version | Graphics & Text | Print | Product List | Glossary On
Versions: 1 2 3 4 5 6 7 8 9 10 11 12 13 14 15 16 17 18 19 20 21 22 23 24 25 26 27 28 29 30 31 32 33 34 35 36 37 38 39 40 41 42 43 44 45 46 47 48 49 50
000
ASUS43 KFSD 040410
RWRSD

WEATHER ROUNDUP FOR SOUTH DAKOTA
NATIONAL WEATHER SERVICE SIOUX FALLS SD
1100 PM CDT TUE MAY 03 2016

NOTE: "FAIR" INDICATES FEW OR NO CLOUDS BELOW 12,000 FEET WITH NO
SIGNIFICANT WEATHER AND/OR OBSTRUCTIONS TO VISIBILITY.


SDZ001>005-009-010-012>017-040500-
NORTHWEST AND NORTH CENTRAL SOUTH DAKOTA

CITY           SKY/WX    TMP DP  RH WIND       PRES   REMARKS
BUFFALO          N/A     64  36  35 N9        30.04R
FAITH            N/A     58  39  49 N6        30.07R
MOBRIDGE       CLEAR     55  34  45 NE8       30.00R
$$

SDZ012>016-024>037-041>051-057-063-072>074-040500-
SOUTHWEST AND SOUTH CENTRAL SOUTH DAKOTA

CITY           SKY/WX    TMP DP  RH WIND       PRES   REMARKS
RAPID CTY ARPT CLEAR     53  41  63 NW12      30.10R
PIERRE         CLEAR     54  41  61 N12       29.99R
CUSTER         CLEAR     51  32  48 N6        30.21R
ELLSWORTH AFB  CLEAR     55  41  59 NW9       30.10R
PHILIP         CLEAR     50  45  83 W7        30.04R
PINE RIDGE     CLEAR     48  38  68 CALM      30.11R
WINNER         FAIR      58  43  57 NW5       30.01R
$$

SDZ004>011-016>023-039-040-040500-
NORTHEAST SOUTH DAKOTA

CITY           SKY/WX    TMP DP  RH WIND       PRES   REMARKS
ABERDEEN       CLEAR     52  32  46 N9        29.99R
WATERTOWN      CLEAR     49  30  48 N10       29.94R
BROOKINGS      CLEAR     52  31  44 N10       29.91R
SISSETON         N/A     53  31  42 N14       29.94R
$$

SDZ017-020-022-023-036>040-048>070-040500-
SOUTHEAST SOUTH DAKOTA

CITY           SKY/WX    TMP DP  RH WIND       PRES   REMARKS
SIOUX FALLS    CLEAR     52  33  48 N9        29.90R
HURON          CLEAR     55  31  39 N12       29.95R
CHAMBERLAIN    CLEAR     58  40  51 N6        29.99R
MITCHELL       CLEAR     54  38  54 N8        29.94R
YANKTON        CLEAR     55  41  58 NW9       29.91R
$$

ABBREVIATIONS USED IN REMARKS
   TC - TEMPERATURE IN CELSIUS
  WCI - WIND CHILL INDEX
   HX - HEAT INDEX
  VSB - VISIBILITY





USA.gov is the U.S. government's official web portal to all federal, state and local government web resources and services.